FORMOSAT-3 FM4

Last updated on Tue Mar 15 2022 00:02:21 GMT+0000 (Coordinated Universal Time)

1 29051U 06011E 22073.60937035 .00000363 00000+0 15592-3 0 9998 2 29051 72.0037 239.6966 0069881 266.4169 92.8974 14.28987917832867
UTC large
Height (km)
Speed (km/s)
/
Latitude / Longitude
Inclination (degrees)
Orbital Period (minutes)
Azimuth
Elevation
Range (km)
Doppler Factor

Next 0 passes for location: London (51.5072 / 0.1276)

Sorry there are no passes over London.